Regional Weather Roundup
Issued by NWS

Home | Current Version | Previous Version | Text Only | Print | Product List | Glossary On
Versions: 1 2 3 4 5 6 7 8 9 10 11 12 13 14 15 16 17 18 19 20 21 22 23 24 25 26 27 28 29 30 31 32 33 34 35 36 37 38 39 40 41 42 43 44 45 46 47 48 49 50
000
ASUS43 KDTX 191110
RWRMI
MICHIGAN HOURLY REGIONAL WEATHER ROUNDUP
NATIONAL WEATHER SERVICE DETROIT/PONTIAC MI
600 AM EST THU JAN 19 2017

NOTE: "FAIR" INDICATES FEW OR NO CLOUDS BELOW 12,000 FEET WITH NO
SIGNIFICANT WEATHER AND/OR OBSTRUCTION TO VISIBILITY.

MIZ047>049-052>055-059>063-066>070-074>076-081>083-191200-
SOUTHEAST LOWER MICHIGAN

CITY           SKY/WX    TMP DP  RH WIND       PRES   REMARKS
ADRIAN         CLOUDY    32  32 100 W8        30.09R WCI  25
ALMA           CLOUDY    35  32  90 SW12      30.03S WCI  26
ANN ARBOR      CLOUDY    33  31  92 SW7       30.06S WCI  27
BAD AXE        CLOUDY    32  32  99 SW8       30.02R FOG     WCI  25
CARO           CLOUDY    32  32  97 SW8       30.03R FOG     WCI  25
DETROIT CITY   CLOUDY    33  31  92 W10       30.07S WCI  25
DETROIT        CLOUDY    34  31  88 SW12      30.08S WCI  25
FLINT          CLOUDY    33  30  88 SW5       30.05S WCI  29
GROSSE ILE     CLOUDY    33  31  93 W8        30.07R WCI  26
HILLSDALE      CLOUDY    32  32 100 SW8       30.05S FOG     WCI  25
HOWELL         CLOUDY    32  30  92 SW8       30.05R WCI  25

CITY           SKY/WX    TMP DP  RH WIND       PRES   REMARKS
JACKSON        CLOUDY    33  30  88 SW8       30.06R WCI  26
LAMBERTVILLE   CLOUDY    36  32  88 W5        30.09S FOG     WCI  32
LANSING        CLOUDY    34  29  82 SW9       30.06R WCI  27
LAPEER         CLOUDY    32  31  96 W7        30.05R WCI  26
MASON          CLOUDY    33  31  94 SW5       30.06S WCI  28
MONROE         CLOUDY    33  33  96 W12       30.08R FOG     WCI  25
MT. CLEMENS    CLOUDY    33  31  92 W3        30.04S
PONTIAC        CLOUDY    32  29  88 W7        30.03F WCI  26
PORT HOPE        N/A     34  31  88 VRB3      30.00R
PORT HURON     CLOUDY    32  30  93 SW5       30.06R WCI  27
TRI CITIES     CLOUDY    34  32  92 SW8       30.03R FOG     WCI  27
MIDLAND        CLOUDY    35  32  90 SW3       30.01R
TROY           CLOUDY    33  30  88 W6        30.08S WCI  28
SAGINAW HB     CLOUDY    34  32  93 SW9       30.04R FOG     WCI  26
$$
MIZ043>046-050>051-056>058-064>065-071>073-077>080-191200-
SOUTHWEST LOWER MICHIGAN

CITY           SKY/WX    TMP DP  RH WIND       PRES   REMARKS
BATTLE CREEK   CLOUDY    33  32  96 W10       30.07R WCI  25
BENTON HARBOR  CLOUDY    37  33  85 S6        30.05S WCI  32
BIG RAPIDS     CLOUDY    34  32  93 SW7       29.99R FOG     WCI  28
COLDWATER      CLOUDY    33  33 100 SW7       30.07S WCI  27
FREMONT        CLOUDY    34  33  99 SW8       30.01R FOG     WCI  27
HOLLAND        CLOUDY    37  34  89 SW9       30.04R WCI  30
GRAND RAPIDS   CLOUDY    36  32  85 SW10      30.03S FOG     WCI  28
IONIA          CLOUDY    34  32  94 SW9       30.03S FOG     WCI  26
KALAMAZOO      CLOUDY    34  30  85 SW6       30.07R WCI  29
LUDINGTON      CLOUDY    34  33  98 SW13      29.99S FOG     WCI  25
MARSHALL       CLOUDY    33  32  94 SW7       30.06S WCI  27
MOUNT PLEASANT CLOUDY    35  33  93 SW8       30.00S FOG     WCI  28
MUSKEGON       CLOUDY    38  35  89 SW9       30.03S WCI  31
SOUTH HAVEN    CLOUDY    36  34  94 S5        30.04F WCI  32
$$
MIZ016>042-191200-
NORTHERN LOWER MICHIGAN

CITY           SKY/WX    TMP DP  RH WIND       PRES   REMARKS
ALPENA         CLOUDY    34  31  88 S5        29.99R WCI  30
BEAVER ISLAND  CLOUDY    35  33  94 SW6       29.93R FOG     WCI  30
BELLAIRE       CLOUDY    35  32  90 S3        29.97R
CADILLAC       FOG       32  32  99 SW9       29.95S VSB 1   WCI  24
CHARLEVOIX     CLOUDY    36  34  92 SW6       29.98R FOG     WCI  31
FRANKFORT      CLOUDY    37  35  93 SW9G17    29.97R FOG     WCI  30
GAYLORD        CLOUDY    34  30  85 SW7       29.94R FOG     WCI  28
GRAYLING       CLOUDY    34  32  93 SW3       29.96R FOG
HARBOR SPRINGS CLOUDY    35  33  92 SW6       29.95R FOG     WCI  30
HOUGHTON LAKE  CLOUDY    33  31  92 SW12      29.97R FOG     WCI  24
MANISTEE       CLOUDY    35  33  92 S9        29.97S FOG     WCI  28
OSCODA         CLOUDY    35  32  88 S3        29.99R
PELLSTON       CLOUDY    36  31  82 SW9       29.95S HAZE    WCI  29
ROGERS CITY    CLOUDY    35  32  90 CALM      29.99R
TRAVERSE CITY  CLOUDY    36  32  85 SW6       29.96R WCI  31
$$
MIZ007>008-015-191200-
EASTERN UPPER MICHIGAN

CITY           SKY/WX    TMP DP  RH WIND       PRES   REMARKS
KINROSS        CLOUDY   N/A N/A N/A S6        29.93R HAZE
MACKINAC ISLAN CLOUDY    34  34 100 S7        29.93S FOG     WCI  28
NEWBERRY       CLOUDY    31  30  96 S6        29.90R FOG     WCI  25
S. S. MARIE    CLOUDY    36  33  89 CALM      29.93R
MUNISING         N/A     28  26  92 S6        29.88R WCI  22
$$
MIZ004>006-011>014-085-191200-
CENTRAL UPPER MICHIGAN

CITY           SKY/WX    TMP DP  RH WIND       PRES   REMARKS
MANISTIQUE     FOG       24  23  98 CALM      29.89S VSB 1/4
ESCANABA       CLOUDY    26  25  96 CALM      29.91S FOG
SAWYER-GWINN   CLOUDY    23  22  96 S5        29.85S FOG     WCI  17
$$
MIZ001>003-009>011-084-191200-
WESTERN UPPER MICHIGAN

CITY           SKY/WX    TMP DP  RH WIND       PRES   REMARKS
IRON MOUNTAIN  CLOUDY    28  26  92 CALM      29.86R FOG
HOUGHTON       CLOUDY    27  24  89 CALM      29.81F
COPPER HARBOR    N/A     29  26  89 SW8       29.83F WCI  21
IRONWOOD       CLOUDY    34  32  92 S5        29.83R FOG     WCI  30
$$

ABBREVIATIONS USED IN REMARKS
   TC - TEMPERATURE IN CELSIUS
  WCI - WIND CHILL INDEX
   HX - HEAT INDEX
  VSB - VISIBILITY




USA.gov is the U.S. government's official web portal to all federal, state and local government web resources and services.